Probability
4 3 2 3 4 5 5 5 5 4 4 3 2 2 2 1 2 5 6 5 2 1 0 0 0 0 0 0 0 1 2 3 5 6 7 7 6 5
5 5 5 6 7 7 7 7 6 5 4 4 4 4 3 2 2 4 5 4 2 1 0 0 0 0 0 0 0 0 1 3 4 5 5 5 4 4
7 7 8 9 9 9 9 9 8 7 6 6 6 6 4 3 3 3 4 4 3 1 0 0 0 0 0 0 0 0 1 2 2 2 2 2 3 3
8 9 10 10 10 10 10 10 9 9 8 8 7 6 5 4 3 3 3 3 2 1 0 0 0 0 0 0 0 0 0 1 1 0 0 1 2 2
12 12 12 13 13 12 11 10 10 10 10 9 8 7 5 4 2 1 1 1 1 0 0 0 0 0 0 0 0 0 0 0 0 0 0 0 1 1
17 16 15 15 15 13 11 10 10 10 10 9 7 6 4 2 1 0 0 0 0 0 0 1 1 1 1 0 0 0 0 0 0 0 0 0 0 0
19 18 17 15 13 11 11 10 10 10 9 7 4 3 3 2 1 0 0 0 0 1 1 2 3 3 2 1 1 1 0 0 0 0 0 0 0 0
19 18 16 13 12 10 9 8 7 7 7 5 3 2 2 2 2 1 0 1 1 2 3 4 4 4 3 3 2 1 0 0 0 0 0 0 0 0
17 16 15 13 12 11 9 5 4 4 4 5 4 4 3 2 3 3 2 2 2 2 3 4 4 3 3 3 2 1 0 0 0 0 0 0 0 0
16 17 15 12 11 10 9 6 5 5 3 3 4 5 4 3 4 4 3 3 2 1 2 2 2 1 1 2 1 0 0 0 0 0 0 0 0 0
18 18 15 11 8 7 8 8 8 8 5 3 2 3 3 2 3 3 3 3 2 1 1 1 1 1 1 0 0 1 1 0 0 0 0 0 0 0
19 18 15 10 5 3 5 8 8 9 8 6 5 4 3 2 2 3 3 3 3 2 1 1 2 3 2 1 2 2 2 1 1 0 0 0 0 0
15 15 13 7 2 1 2 5 6 6 8 9 9 9 7 5 4 4 4 4 4 4 3 2 3 3 3 3 3 3 2 2 1 0 0 0 0 0
10 11 9 4 0 0 1 2 2 3 5 8 10 11 10 8 7 6 5 4 3 3 3 2 2 3 3 3 4 3 1 1 1 0 0 1 1 1
7 6 4 1 0 0 0 0 0 1 3 6 8 9 9 9 8 7 6 3 1 1 1 1 1 2 3 3 3 2 1 0 1 2 2 3 3 2
5 4 2 1 0 1 1 1 2 2 3 5 7 7 8 7 7 7 6 3 1 1 2 1 1 2 4 4 4 3 1 1 4 5 4 4 4 2
3 3 3 2 2 2 3 4 4 3 3 4 6 7 8 8 7 7 6 3 1 3 5 4 2 2 4 5 4 3 2 2 5 6 5 4 3 2
2 3 4 4 3 3 4 4 4 3 3 3 5 6 7 9 8 7 5 3 2 3 6 7 5 2 2 2 2 2 1 2 4 5 5 4 2 1
2 4 5 6 5 4 5 6 7 6 5 4 4 4 6 7 7 5 5 4 2 2 4 5 4 2 1 2 2 2 0 1 3 3 3 2 1 0
2 4 6 6 6 6 7 9 10 10 8 6 4 3 3 4 4 4 4 3 3 2 3 3 2 2 2 4 4 2 1 1 2 2 2 1 0 0
3 4 6 6 6 6 7 9 10 11 10 7 5 3 2 2 3 3 3 4 4 3 4 4 3 2 2 4 3 2 1 0 1 1 1 0 0 0
5 6 7 7 7 7 8 8 9 10 9 7 5 3 1 1 2 2 3 4 4 3 4 4 4 2 1 1 1 1 0 0 0 0 0 0 0 0
6 8 9 9 9 9 9 9 8 8 8 7 5 3 2 2 1 1 2 4 4 3 3 4 4 2 1 0 0 0 0 0 0 0 0 0 0 0
Wind_Speed
2 2 2 2 2 3 3 3 3 3 3 2 2 2 2 2 3 3 3 3 4 4 4 4 4 4 4 4 4 4 4 5 5 5 5 5 6 6
2 2 2 2 2 2 2 2 3 3 3 2 3 2 2 3 3 3 4 4 5 5 5 5 5 4 4 3 3 4 4 5 5 5 5 5 5 6
2 2 3 3 2 2 2 2 2 3 4 3 2 2 2 3 3 2 3 3 3 4 5 5 6 5 5 4 4 4 3 4 4 4 5 6 6 6
3 3 3 2 3 2 2 3 3 3 3 4 2 2 3 3 3 3 3 3 2 4 5 5 5 5 5 4 4 4 4 4 4 4 4 5 6 6
4 4 4 3 4 3 3 3 3 3 2 3 3 2 2 2 2 2 3 2 3 3 4 4 4 4 4 4 4 4 4 5 4 4 4 5 5 6
4 5 5 5 5 5 4 4 3 3 2 2 2 2 2 2 1 2 2 2 2 2 2 2 2 3 4 4 4 5 5 5 5 5 5 5 5 6
4 5 5 6 6 5 4 4 3 3 2 2 3 2 2 2 2 2 2 3 3 2 2 2 1 2 3 4 5 5 5 5 5 5 5 6 6 6
5 5 5 5 6 7 7 6 5 5 4 3 3 4 4 3 2 2 2 2 3 1 2 3 2 3 3 3 4 5 5 5 5 5 5 5 6 7
5 4 4 4 4 4 5 5 5 6 7 5 5 5 4 4 3 3 3 3 4 2 2 4 2 3 3 4 6 6 6 6 6 5 5 5 6 6
5 5 5 5 5 4 3 3 4 5 6 6 6 6 5 4 4 4 4 3 4 3 2 3 3 3 3 3 5 7 7 6 6 6 6 5 5 6
5 5 5 5 6 5 4 4 4 4 5 5 6 6 6 5 4 2 2 2 3 3 2 3 3 3 3 3 3 5 6 6 6 6 6 5 5 5
4 5 6 6 6 5 5 5 5 5 4 3 4 4 5 5 6 6 4 3 3 3 2 3 2 2 3 2 2 2 3 5 6 6 6 5 4 3
4 4 4 5 6 6 6 6 7 5 3 3 3 3 3 3 4 5 5 5 4 4 3 3 2 2 3 3 2 2 3 2 3 3 5 5 5 5
4 4 4 5 5 6 5 6 7 5 3 3 3 3 3 3 3 4 5 6 6 6 4 4 3 3 3 3 4 2 2 3 3 3 3 3 3 5
4 5 5 5 5 4 5 5 4 3 3 3 4 4 4 4 3 3 3 4 5 5 5 5 5 4 4 4 4 3 3 3 3 3 3 3 3 3
3 4 4 4 3 3 3 2 2 2 3 3 3 3 3 2 3 3 3 2 3 3 4 5 6 6 5 5 5 4 4 3 2 3 3 3 3 3
2 1 1 1 1 2 2 2 2 2 2 2 3 3 3 3 3 3 2 2 3 4 3 2 3 4 5 5 5 5 4 4 4 3 2 2 3 3
1 1 1 1 2 2 2 2 2 2 3 3 3 3 3 3 3 2 2 3 4 4 4 3 1 1 2 3 6 6 4 4 3 3 3 3 3 2
1 2 2 2 2 3 3 3 3 3 3 3 3 4 3 3 3 3 3 3 4 4 4 3 2 2 3 4 3 5 4 3 3 3 3 3 3 3
2 3 3 3 3 3 3 3 3 3 3 3 3 3 3 3 3 3 3 4 4 4 4 3 3 4 5 5 3 3 5 4 3 3 2 2 1 1
3 3 3 3 3 3 3 3 3 3 3 3 3 4 3 3 4 4 4 5 4 4 4 4 4 4 3 2 2 2 2 3 3 3 2 2 1 1
3 3 3 3 3 3 3 3 3 3 3 3 3 3 3 3 4 5 4 4 4 4 5 4 2 2 2 3 3 2 1 0 1 1 1 2 2 3
4 4 3 3 3 3 3 4 4 4 3 3 3 3 3 3 4 4 4 3 3 4 4 3 2 2 2 3 3 2 2 1 1 1 1 1 3 2
Wind_Direction
242 236 236 243 230 228 222 211 216 260 274 264 265 270 264 260 268 259 259 264 260 260 261 263 263 261 257 256 244 240 236 231 230 233 234 234 232 233
230 232 241 247 246 236 225 223 220 231 256 254 255 269 276 283 280 264 263 266 259 254 252 250 247 248 249 246 238 230 228 226 227 229 231 235 235 232
244 236 249 244 243 239 228 227 227 223 251 272 260 267 258 271 291 286 273 264 261 250 246 243 241 238 234 234 231 226 223 226 229 232 232 233 233 227
246 244 256 252 244 242 234 237 236 227 233 264 275 268 261 265 278 286 289 276 268 256 244 245 240 232 223 221 222 222 225 226 228 231 236 238 234 226
240 242 251 244 246 245 240 242 243 241 232 244 271 270 271 278 288 290 292 290 283 271 247 244 238 230 226 224 222 216 220 226 230 230 230 235 234 228
243 241 244 239 240 239 240 239 237 238 232 239 261 272 274 280 271 283 294 296 300 303 296 272 248 234 231 229 225 220 220 224 229 229 228 229 229 225
258 253 249 243 239 235 236 228 221 226 230 241 260 272 266 263 261 263 278 296 287 281 288 284 260 248 242 235 235 232 231 230 230 230 230 228 225 222
254 260 257 253 248 243 241 228 214 217 224 230 245 251 255 248 249 248 262 288 288 281 275 281 260 257 249 239 235 234 234 233 232 230 229 229 226 221
248 256 262 265 253 252 247 239 236 232 222 217 233 244 244 234 229 240 240 248 260 275 273 272 258 261 258 246 233 232 232 232 231 232 231 229 227 222
253 253 252 258 251 238 237 241 246 243 233 225 233 240 242 235 224 235 240 249 261 254 235 264 266 265 271 256 232 228 229 229 229 231 234 234 231 225
259 259 255 255 252 233 226 241 256 263 248 239 239 246 246 239 221 209 217 235 265 262 213 243 264 276 270 259 242 225 222 222 225 228 233 235 229 222
270 267 259 255 254 230 223 230 246 256 259 261 255 256 247 238 219 213 214 223 248 260 214 219 248 266 277 258 250 242 231 226 227 228 230 232 219 207
265 270 266 255 253 245 237 236 242 246 247 248 255 259 253 241 231 223 217 214 225 242 225 204 232 235 252 277 273 248 240 242 236 236 229 226 211 199
255 263 267 268 263 255 245 244 244 240 236 236 247 254 254 254 249 238 229 226 232 243 237 210 227 226 238 264 273 265 247 240 236 237 232 214 213 212
260 265 270 268 268 258 247 246 235 222 220 234 245 252 253 258 256 248 240 237 243 249 240 230 232 232 230 243 255 260 269 257 228 225 225 217 217 206
276 282 280 270 260 261 262 244 223 217 222 244 256 261 264 258 249 246 245 244 260 267 248 234 230 226 237 242 240 251 250 248 236 223 225 228 224 213
268 294 305 315 308 301 289 270 239 215 225 246 255 263 265 263 262 254 242 235 242 261 274 264 241 234 239 239 244 246 245 247 243 225 217 234 234 222
174 247 269 275 277 278 275 273 255 244 244 241 244 252 257 261 266 257 241 240 248 255 257 258 259 269 266 256 232 238 239 243 243 221 215 227 240 233
180 238 252 255 260 263 260 260 261 254 246 242 244 247 250 254 260 258 249 245 249 256 258 249 227 227 251 271 257 216 229 238 233 221 214 218 235 239
231 241 244 251 257 261 265 266 267 261 251 247 247 250 245 247 253 257 252 251 253 254 257 247 231 229 239 259 266 257 226 229 223 222 218 217 248 245
237 241 246 251 258 262 267 268 267 262 254 247 248 249 247 247 253 254 254 250 249 255 259 259 258 247 255 241 237 250 250 215 209 209 200 192 204 209
242 243 247 252 258 263 266 267 266 262 258 248 247 249 247 244 253 259 256 251 247 252 259 264 266 243 227 227 240 239 254 257 171 167 186 190 193 203
238 243 247 246 251 257 261 260 259 257 252 248 248 249 248 247 250 250 252 257 258 256 258 260 256 245 242 228 225 221 217 218 108 89 15 152 174 184